Strona główna
METAR-TAF:

METAR-TAF

Lotnisko :

Mitchell Municipal Airport

Mitchell, Dakota Południowa, Stany Zjednoczone

Szerokość geograficzna: 43-46N, Długość geograficzna: 098-02W, wysokość: 397 m

Aktualna obserwacja pogody

Raport powstał 23 minut temu, godzina 17:53 UTC
Wiatr 8 kt od północno-północny zachód
Temperatura 16°C
Wilgotność 27%
Ciśnienie 1005 hPa
Widzialność: 16.1 km
bezchmurnie

METAR: KMHE 111753Z AUTO 34008KT 10SM CLR 16/M03 A2967 RMK AO2 SLP049 T01611028 10161 21011 50007

czas: 13:16 (18:16 UTC)


TAF: brakujący

Obserwacja i prognoza pogody dla ponad 4000 lotnisk (raport METAR i TAF).

Dostępne stacje oznaczono żółtymi i czerwonymi punktami na mapie.

Najedź kursorem aby zobaczyć nazwę stacji.

Kliknij aby zobaczyć obserwacje i prognozy pogody.

Aby zmienić mapę: kliknij na zielony przycisk z czarnym krzyżykiem, aby powiększyć; na zielony przycisk z myślnikiem, aby pomniejszyć; na zielone strzałki, aby przejść do map sąsiednich.


METAR-TAF: